Погода в Некочеа

Аргентина     38°33′11″S   58°44′05″W
темп.,
°C
ветер,
м/с
пор.,
м/с
влажн.,
%
обл.,
%
осадки,
мм/ч
давл.,
гПа
погр.,
м
16 апреля, пт
пт1600:00+15зсз33860 0.0 101345
03:00+14зсз37910 0.0 1013134
06:00+14з35954 0.0 1013102
09:00+16з359121 0.0 1015196
12:00+22юз34654 0.0 1015698
15:00+22ю446299 0.0 1014686
18:00+18ююв3481100 0.0 1015109
21:00+16в339132 0.0 101655
17 апреля, сб
сб1700:00+15ссв33925 0.0 101643
03:00+15св22927 0.0 101729
06:00+14св229323 0.0 101736
09:00+17св238324 0.0 1019146
12:00+23ссв346092 0.0 1018669
15:00+25ссв344931 0.0 10171341
18:00+21св33630 0.0 101733
21:00+18ссв48790 0.0 1018151
18 апреля, вс
вс1800:00+16ссв4990100 0.0 1018182
03:00+16с41094100 0.0 1019233
06:00+15ссв4109188 0.0 1018248
09:00+17с5118494 0.0 1019329
12:00+22с7964100 0.0 1018741
15:00+24ссз6853100 0.0 10161245
18:00+22с346791 0.0 101673
21:00+19с41080100 0.0 1017240
19 апреля, пн
пн1900:00+18с61383100 0.0 1017421
03:00+17с614775 0.0 1017403
06:00+16с5148762 0.0 1018358
09:00+18с6138040 0.0 1019415
12:00+24с810543 0.0 1018898
15:00+25с811450 0.0 10161219
18:00+22ссв712565 0.0 1016668
21:00+18ссв715690 0.0 1017516
20 апреля, вт
вт2000:00+16ссв716835 0.0 1018518
03:00+15ссв514940 0.0 1018497
06:00+15ссв5149649 0.0 1018507
09:00+17ссв6148519 0.0 1020658
12:00+22ссв810574 0.0 10191029
15:00+24ссв810480 0.0 10171315
18:00+20ссв711680 0.0 1017849
21:00+17св614770 0.0 1019588